Lid_Strength_Index
-1 -1 -1 -1 -1 -1 -1 -1 -1 -2 -2 -1 -1 -2 -1 0 2 2 1 1 -2 -2 -2 -2 -2 -2 -2 -2 -2 -2 -2 -2 -1
-1 -0 -0 -1 -1 -1 -1 -1 -1 -1 -1 -1 -1 -1 -0 3 2 2 2 1 -2 -2 -2 -2 -2 -2 -2 -2 -2 -2 -2 -2 -2
0 -0 -0 -1 -1 -1 -1 -1 -1 -1 -1 -1 -1 -1 0 2 2 1 1 -1 -2 -2 -2 -1 -2 -2 -2 -2 -2 -2 -2 -2 -2
0 0 -0 -0 -1 -0 -0 -0 -0 -0 -0 -2 -2 -1 -1 2 1 0 1 -2 -2 -2 -2 -2 -2 -2 -2 -2 -2 -2 -2 -2 -2
1 1 0 -0 -0 -0 -0 0 0 0 0 -0 -1 -1 -0 2 1 2 0 -2 -2 -2 -2 -2 -2 -2 -2 -2 -2 -2 -2 -2 -2
5 1 0 0 0 0 0 0 1 3 2 1 0 1 3 2 1 1 -2 -2 -2 -2 -2 -2 -2 -2 -2 -2 -2 -2 -2 -2 -2
6 4 2 2 2 2 1 1 3 5 8 7 3 3 3 2 1 0 -2 -2 -2 -2 -2 -2 -2 -2 -2 -2 -2 -2 -2 -2 -2
8 8 8 8 6 8 7 7 7 8 7 7 6 3 3 3 2 0 -1 -2 -2 -2 -2 -1 -2 -2 -2 -2 -2 -2 -2 -2 -2
9 9 9 9 9 9 8 8 8 7 6 6 6 4 3 4 3 2 -1 -1 -1 -1 -1 -1 -1 -1 -1 -2 -1 -1 -1 -1 -1
9 9 9 9 9 9 9 8 8 7 5 5 6 4 4 4 4 4 0 0 0 -0 -1 -1 -1 -1 -1 -1 -1 -0 -0 0 -0
9 9 9 9 9 9 8 9 8 8 5 5 5 4 4 4 5 5 5 1 1 1 0 -0 -0 -1 -1 -1 -0 -0 0 0 0
9 9 9 9 9 9 9 9 9 8 6 5 5 4 5 5 6 6 6 6 3 1 1 0 0 0 -0 -0 0 0 1 1 1
9 9 10 10 9 9 9 9 10 10 9 8 5 5 5 6 6 6 6 6 7 4 1 1 1 1 0 0 0 1 2 2 1
9 9 10 10 10 10 9 9 10 10 10 8 6 6 6 5 5 6 6 6 7 7 3 2 2 2 2 2 1 2 2 2 2
9 10 10 10 10 10 10 10 10 10 10 8 7 7 6 6 6 6 5 6 7 7 7 6 6 3 2 2 2 3 2 3 3
10 10 10 10 11 11 10 10 10 10 10 10 10 9 7 6 7 6 6 8 8 9 9 8 7 7 5 4 3 3 3 3 3
9 10 10 11 11 11 11 11 11 11 10 11 12 12 11 9 9 8 7 9 9 9 9 9 10 10 9 7 4 4 3 3 3
10 10 10 11 11 11 11 11 11 12 11 11 11 13 14 12 10 9 9 9 10 10 10 10 10 10 10 8 7 5 4 4 3
9 10 10 11 11 11 11 11 11 11 12 11 10 11 11 12 13 10 9 10 10 11 11 10 11 11 11 9 7 6 5 3 3
9 10 11 11 11 11 12 12 12 11 12 12 12 12 12 12 12 13 12 12 11 11 11 11 11 11 11 11 8 5 4 4 3